Year,Month,Day,Hour,Minute,Value (Times are PST for insolation in W/m^2)
2022,08,02,00,00,0.00
2022,08,02,00,01,0.00
2022,08,02,00,02,0.00
2022,08,02,00,03,0.00
2022,08,02,00,04,0.00
2022,08,02,00,05,0.00
2022,08,02,00,06,0.00
2022,08,02,00,07,0.00
2022,08,02,00,08,0.00
2022,08,02,00,09,0.00
2022,08,02,00,10,0.00
2022,08,02,00,11,0.00
2022,08,02,00,12,0.00
2022,08,02,00,13,0.00
2022,08,02,00,14,0.00
2022,08,02,00,15,0.00
2022,08,02,00,16,0.00
2022,08,02,00,17,0.00
2022,08,02,00,18,0.00
2022,08,02,00,19,0.00
2022,08,02,00,20,0.00
2022,08,02,00,21,0.00
2022,08,02,00,22,0.00
2022,08,02,00,23,0.00
2022,08,02,00,24,0.00
2022,08,02,00,25,0.00
2022,08,02,00,26,0.00
2022,08,02,00,27,0.00
2022,08,02,00,28,0.00
2022,08,02,00,29,0.00
2022,08,02,00,30,0.00
2022,08,02,00,31,0.00
2022,08,02,00,32,0.00
2022,08,02,00,33,0.00
2022,08,02,00,34,0.00
2022,08,02,00,35,0.00
2022,08,02,00,36,0.00
2022,08,02,00,37,0.00
2022,08,02,00,38,0.00
2022,08,02,00,39,0.00
2022,08,02,00,40,0.00
2022,08,02,00,41,0.00
2022,08,02,00,42,0.00
2022,08,02,00,43,0.00
2022,08,02,00,44,0.00
2022,08,02,00,45,0.00
2022,08,02,00,46,0.00
2022,08,02,00,47,0.00
2022,08,02,00,48,0.00
2022,08,02,00,49,0.00
2022,08,02,00,50,0.00
2022,08,02,00,51,0.00
2022,08,02,00,52,0.00
2022,08,02,00,53,0.00
2022,08,02,00,54,0.00
2022,08,02,00,55,0.00
2022,08,02,00,56,0.00
2022,08,02,00,57,0.00
2022,08,02,00,58,0.00
2022,08,02,00,59,0.00
2022,08,02,01,00,0.00
2022,08,02,01,01,0.00
2022,08,02,01,02,0.00
2022,08,02,01,03,0.00
2022,08,02,01,04,0.00
2022,08,02,01,05,0.00
2022,08,02,01,06,0.00
2022,08,02,01,07,0.00
2022,08,02,01,08,0.00
2022,08,02,01,09,0.00
2022,08,02,01,10,0.00
2022,08,02,01,11,0.00
2022,08,02,01,12,0.00
2022,08,02,01,13,0.00
2022,08,02,01,14,0.00
2022,08,02,01,15,0.00
2022,08,02,01,16,0.00
2022,08,02,01,17,0.00
2022,08,02,01,18,0.00
2022,08,02,01,19,0.00
2022,08,02,01,20,0.00
2022,08,02,01,21,0.00
2022,08,02,01,22,0.00
2022,08,02,01,23,0.00
2022,08,02,01,24,0.00
2022,08,02,01,25,0.00
2022,08,02,01,26,0.00
2022,08,02,01,27,0.00
2022,08,02,01,28,0.00
2022,08,02,01,29,0.00
2022,08,02,01,30,0.00
2022,08,02,01,31,0.00
2022,08,02,01,32,0.00
2022,08,02,01,33,0.00
2022,08,02,01,34,0.00
2022,08,02,01,35,0.00
2022,08,02,01,36,0.00
2022,08,02,01,37,0.00
2022,08,02,01,38,0.00
2022,08,02,01,39,0.00
2022,08,02,01,40,0.00
2022,08,02,01,41,0.00
2022,08,02,01,42,0.00
2022,08,02,01,43,0.00
2022,08,02,01,44,0.00
2022,08,02,01,45,0.00
2022,08,02,01,46,0.00
2022,08,02,01,47,0.00
2022,08,02,01,48,0.00
2022,08,02,01,49,0.00
2022,08,02,01,50,0.00
2022,08,02,01,51,0.00
2022,08,02,01,52,0.00
2022,08,02,01,53,0.00
2022,08,02,01,54,0.00
2022,08,02,01,55,0.00
2022,08,02,01,56,0.00
2022,08,02,01,57,0.00
2022,08,02,01,58,0.00
2022,08,02,01,59,0.00
2022,08,02,02,00,0.00
2022,08,02,02,01,0.00
2022,08,02,02,02,0.00
2022,08,02,02,03,0.00
2022,08,02,02,04,0.00
2022,08,02,02,05,0.00
2022,08,02,02,06,0.00
2022,08,02,02,07,0.00
2022,08,02,02,08,0.00
2022,08,02,02,09,0.00
2022,08,02,02,10,0.00
2022,08,02,02,11,0.00
2022,08,02,02,12,0.00
2022,08,02,02,13,0.00
2022,08,02,02,14,0.00
2022,08,02,02,15,0.00
2022,08,02,02,16,0.00
2022,08,02,02,17,0.00
2022,08,02,02,18,0.00
2022,08,02,02,19,0.00
2022,08,02,02,20,0.00
2022,08,02,02,21,0.00
2022,08,02,02,22,0.00
2022,08,02,02,23,0.00
2022,08,02,02,24,0.00
2022,08,02,02,25,0.00
2022,08,02,02,26,0.00
2022,08,02,02,27,0.00
2022,08,02,02,28,0.00
2022,08,02,02,29,0.00
2022,08,02,02,30,0.00
2022,08,02,02,31,0.00
2022,08,02,02,32,0.00
2022,08,02,02,33,0.00
2022,08,02,02,34,0.00
2022,08,02,02,35,0.00
2022,08,02,02,36,0.00
2022,08,02,02,37,0.00
2022,08,02,02,38,0.00
2022,08,02,02,39,0.00
2022,08,02,02,40,0.00
2022,08,02,02,41,0.00
2022,08,02,02,42,0.00
2022,08,02,02,43,0.00
2022,08,02,02,44,0.00
2022,08,02,02,45,0.00
2022,08,02,02,46,0.00
2022,08,02,02,47,0.00
2022,08,02,02,48,0.00
2022,08,02,02,49,0.00
2022,08,02,02,50,0.00
2022,08,02,02,51,0.00
2022,08,02,02,52,0.00
2022,08,02,02,53,0.00
2022,08,02,02,54,0.00
2022,08,02,02,55,0.00
2022,08,02,02,56,0.00
2022,08,02,02,57,0.00
2022,08,02,02,58,0.00
2022,08,02,02,59,0.00
2022,08,02,03,00,0.00
2022,08,02,03,01,0.00
2022,08,02,03,02,0.00
2022,08,02,03,03,0.00
2022,08,02,03,04,0.00
2022,08,02,03,05,0.00
2022,08,02,03,06,0.00
2022,08,02,03,07,0.00
2022,08,02,03,08,0.00
2022,08,02,03,09,0.00
2022,08,02,03,10,0.00
2022,08,02,03,11,0.00
2022,08,02,03,12,0.00
2022,08,02,03,13,0.00
2022,08,02,03,14,0.00
2022,08,02,03,15,0.00
2022,08,02,03,16,0.00
2022,08,02,03,17,0.00
2022,08,02,03,18,0.00
2022,08,02,03,19,0.00
2022,08,02,03,20,0.00
2022,08,02,03,21,0.00
2022,08,02,03,22,0.00
2022,08,02,03,23,0.00
2022,08,02,03,24,0.00
2022,08,02,03,25,0.00
2022,08,02,03,26,0.00
2022,08,02,03,27,0.00
2022,08,02,03,28,0.00
2022,08,02,03,29,0.00
2022,08,02,03,30,0.00
2022,08,02,03,31,0.00
2022,08,02,03,32,0.00
2022,08,02,03,33,0.00
2022,08,02,03,34,0.00
2022,08,02,03,35,0.00
2022,08,02,03,36,0.00
2022,08,02,03,37,0.00
2022,08,02,03,38,0.00
2022,08,02,03,39,0.00
2022,08,02,03,40,0.00
2022,08,02,03,41,0.00
2022,08,02,03,42,0.00
2022,08,02,03,43,0.00
2022,08,02,03,44,0.00
2022,08,02,03,45,0.00
2022,08,02,03,46,0.00
2022,08,02,03,47,0.00
2022,08,02,03,48,0.00
2022,08,02,03,49,0.00
2022,08,02,03,50,0.00
2022,08,02,03,51,0.00
2022,08,02,03,52,0.00
2022,08,02,03,53,0.00
2022,08,02,03,54,0.00
2022,08,02,03,55,0.00
2022,08,02,03,56,0.00
2022,08,02,03,57,0.00
2022,08,02,03,58,0.00
2022,08,02,03,59,0.00
2022,08,02,04,00,0.00
2022,08,02,04,01,0.00
2022,08,02,04,02,0.00
2022,08,02,04,03,0.00
2022,08,02,04,04,0.00
2022,08,02,04,05,0.00
2022,08,02,04,06,0.00
2022,08,02,04,07,0.00
2022,08,02,04,08,0.00
2022,08,02,04,09,0.00
2022,08,02,04,10,0.00
2022,08,02,04,11,0.00
2022,08,02,04,12,0.00
2022,08,02,04,13,0.00
2022,08,02,04,14,0.00
2022,08,02,04,15,0.00
2022,08,02,04,16,0.00
2022,08,02,04,17,0.00
2022,08,02,04,18,0.00
2022,08,02,04,19,0.00
2022,08,02,04,20,0.00
2022,08,02,04,21,0.00
2022,08,02,04,22,0.00
2022,08,02,04,23,0.00
2022,08,02,04,24,0.00
2022,08,02,04,25,0.00
2022,08,02,04,26,0.00
2022,08,02,04,27,0.00
2022,08,02,04,28,0.00
2022,08,02,04,29,0.00
2022,08,02,04,30,0.00
2022,08,02,04,31,0.00
2022,08,02,04,32,0.00
2022,08,02,04,33,0.00
2022,08,02,04,34,0.00
2022,08,02,04,35,0.00
2022,08,02,04,36,0.00
2022,08,02,04,37,0.00
2022,08,02,04,38,0.00
2022,08,02,04,39,0.00
2022,08,02,04,40,0.00
2022,08,02,04,41,0.00
2022,08,02,04,42,0.00
2022,08,02,04,43,0.00
2022,08,02,04,44,0.00
2022,08,02,04,45,0.00
2022,08,02,04,46,0.00
2022,08,02,04,47,0.00
2022,08,02,04,48,0.00
2022,08,02,04,49,0.00
2022,08,02,04,50,0.00
2022,08,02,04,51,0.00
2022,08,02,04,52,0.00
2022,08,02,04,53,0.00
2022,08,02,04,54,0.00
2022,08,02,04,55,0.00
2022,08,02,04,56,0.00
2022,08,02,04,57,0.00
2022,08,02,04,58,0.00
2022,08,02,04,59,0.00
2022,08,02,05,00,0.00
2022,08,02,05,01,0.00
2022,08,02,05,02,0.00
2022,08,02,05,03,0.00
2022,08,02,05,04,0.00
2022,08,02,05,05,0.00
2022,08,02,05,06,0.00
2022,08,02,05,07,0.00
2022,08,02,05,08,0.00
2022,08,02,05,09,0.00
2022,08,02,05,10,0.00
2022,08,02,05,11,0.00
2022,08,02,05,12,0.00
2022,08,02,05,13,0.00
2022,08,02,05,14,0.00
2022,08,02,05,15,0.00
2022,08,02,05,16,0.00
2022,08,02,05,17,0.00
2022,08,02,05,18,0.00
2022,08,02,05,19,0.00
2022,08,02,05,20,0.00
2022,08,02,05,21,0.00
2022,08,02,05,22,0.00
2022,08,02,05,23,0.00
2022,08,02,05,24,0.00
2022,08,02,05,25,0.00
2022,08,02,05,26,0.00
2022,08,02,05,27,0.00
2022,08,02,05,28,0.00
2022,08,02,05,29,0.00
2022,08,02,05,30,0.00
2022,08,02,05,31,0.00
2022,08,02,05,32,0.00
2022,08,02,05,33,0.00
2022,08,02,05,34,0.00
2022,08,02,05,35,0.00
2022,08,02,05,36,0.00
2022,08,02,05,37,0.00
2022,08,02,05,38,0.00
2022,08,02,05,39,0.00
2022,08,02,05,40,0.00
2022,08,02,05,41,0.00
2022,08,02,05,42,0.00
2022,08,02,05,43,0.00
2022,08,02,05,44,0.00
2022,08,02,05,45,0.00
2022,08,02,05,46,3.00
2022,08,02,05,47,5.00
2022,08,02,05,48,5.00
2022,08,02,05,49,5.00
2022,08,02,05,50,5.70
2022,08,02,05,51,7.00
2022,08,02,05,52,7.00
2022,08,02,05,53,7.00
2022,08,02,05,54,7.10
2022,08,02,05,55,9.00
2022,08,02,05,56,9.00
2022,08,02,05,57,9.00
2022,08,02,05,58,10.30
2022,08,02,05,59,11.00
2022,08,02,06,00,11.90
2022,08,02,06,01,12.00
2022,08,02,06,02,12.70
2022,08,02,06,03,14.00
2022,08,02,06,04,14.00
2022,08,02,06,05,15.60
2022,08,02,06,06,16.20
2022,08,02,06,07,18.00
2022,08,02,06,08,18.00
2022,08,02,06,09,18.50
2022,08,02,06,10,20.40
2022,08,02,06,11,22.70
2022,08,02,06,12,23.00
2022,08,02,06,13,23.80
2022,08,02,06,14,29.80
2022,08,02,06,15,37.20
2022,08,02,06,16,39.70
2022,08,02,06,17,40.00
2022,08,02,06,18,40.30
2022,08,02,06,19,42.00
2022,08,02,06,20,42.00
2022,08,02,06,21,46.20
2022,08,02,06,22,49.00
2022,08,02,06,23,53.50
2022,08,02,06,24,54.00
2022,08,02,06,25,54.60
2022,08,02,06,26,56.00
2022,08,02,06,27,56.00
2022,08,02,06,28,56.00
2022,08,02,06,29,64.20
2022,08,02,06,30,67.00
2022,08,02,06,31,67.00
2022,08,02,06,32,69.40
2022,08,02,06,33,74.50
2022,08,02,06,34,76.00
2022,08,02,06,35,72.70
2022,08,02,06,36,77.00
2022,08,02,06,37,77.00
2022,08,02,06,38,73.00
2022,08,02,06,39,76.60
2022,08,02,06,40,81.00
2022,08,02,06,41,94.10
2022,08,02,06,42,101.00
2022,08,02,06,43,104.00
2022,08,02,06,44,104.00
2022,08,02,06,45,104.70
2022,08,02,06,46,105.00
2022,08,02,06,47,109.20
2022,08,02,06,48,114.20
2022,08,02,06,49,118.00
2022,08,02,06,50,119.70
2022,08,02,06,51,122.30
2022,08,02,06,52,123.00
2022,08,02,06,53,125.30
2022,08,02,06,54,126.80
2022,08,02,06,55,123.00
2022,08,02,06,56,123.00
2022,08,02,06,57,123.00
2022,08,02,06,58,128.90
2022,08,02,06,59,126.10
2022,08,02,07,00,120.70
2022,08,02,07,01,120.00
2022,08,02,07,02,114.80
2022,08,02,07,03,111.00
2022,08,02,07,04,111.70
2022,08,02,07,05,125.80
2022,08,02,07,06,130.00
2022,08,02,07,07,130.00
2022,08,02,07,08,130.00
2022,08,02,07,09,139.00
2022,08,02,07,10,142.00
2022,08,02,07,11,142.00
2022,08,02,07,12,142.00
2022,08,02,07,13,140.60
2022,08,02,07,14,136.00
2022,08,02,07,15,134.80
2022,08,02,07,16,136.90
2022,08,02,07,17,137.40
2022,08,02,07,18,140.10
2022,08,02,07,19,145.00
2022,08,02,07,20,146.70
2022,08,02,07,21,140.40
2022,08,02,07,22,136.90
2022,08,02,07,23,132.60
2022,08,02,07,24,135.70
2022,08,02,07,25,148.50
2022,08,02,07,26,171.20
2022,08,02,07,27,184.40
2022,08,02,07,28,186.70
2022,08,02,07,29,194.00
2022,08,02,07,30,197.80
2022,08,02,07,31,197.90
2022,08,02,07,32,201.90
2022,08,02,07,33,208.20
2022,08,02,07,34,212.80
2022,08,02,07,35,213.00
2022,08,02,07,36,214.40
2022,08,02,07,37,214.80
2022,08,02,07,38,215.40
2022,08,02,07,39,216.00
2022,08,02,07,40,216.30
2022,08,02,07,41,220.10
2022,08,02,07,42,228.10
2022,08,02,07,43,230.80
2022,08,02,07,44,234.50
2022,08,02,07,45,236.10
2022,08,02,07,46,236.20
2022,08,02,07,47,232.00
2022,08,02,07,48,226.60
2022,08,02,07,49,206.70
2022,08,02,07,50,215.50
2022,08,02,07,51,218.60
2022,08,02,07,52,174.00
2022,08,02,07,53,174.00
2022,08,02,07,54,174.00
2022,08,02,07,55,174.00
2022,08,02,07,56,203.20
2022,08,02,07,57,245.00
2022,08,02,07,58,259.60
2022,08,02,07,59,258.00
2022,08,02,08,00,259.00
2022,08,02,08,01,263.40
2022,08,02,08,02,269.80
2022,08,02,08,03,278.10
2022,08,02,08,04,283.50
2022,08,02,08,05,285.00
2022,08,02,08,06,285.00
2022,08,02,08,07,287.10
2022,08,02,08,08,288.00
2022,08,02,08,09,290.10
2022,08,02,08,10,292.50
2022,08,02,08,11,294.00
2022,08,02,08,12,296.60
2022,08,02,08,13,299.00
2022,08,02,08,14,300.70
2022,08,02,08,15,302.50
2022,08,02,08,16,308.20
2022,08,02,08,17,310.60
2022,08,02,08,18,314.10
2022,08,02,08,19,317.10
2022,08,02,08,20,318.00
2022,08,02,08,21,320.80
2022,08,02,08,22,325.00
2022,08,02,08,23,325.00
2022,08,02,08,24,330.20
2022,08,02,08,25,334.00
2022,08,02,08,26,337.60
2022,08,02,08,27,339.00
2022,08,02,08,28,345.30
2022,08,02,08,29,346.00
2022,08,02,08,30,348.40
2022,08,02,08,31,350.00
2022,08,02,08,32,358.20
2022,08,02,08,33,362.80
2022,08,02,08,34,366.00
2022,08,02,08,35,366.00
2022,08,02,08,36,372.50
2022,08,02,08,37,376.00
2022,08,02,08,38,376.40
2022,08,02,08,39,383.40
2022,08,02,08,40,385.70
2022,08,02,08,41,389.60
2022,08,02,08,42,394.60
2022,08,02,08,43,396.80
2022,08,02,08,44,400.90
2022,08,02,08,45,403.60
2022,08,02,08,46,407.60
2022,08,02,08,47,410.50
2022,08,02,08,48,412.30
2022,08,02,08,49,416.20
2022,08,02,08,50,417.00
2022,08,02,08,51,417.20
2022,08,02,08,52,418.00
2022,08,02,08,53,416.40
2022,08,02,08,54,411.80
2022,08,02,08,55,410.90
2022,08,02,08,56,419.50
2022,08,02,08,57,421.00
2022,08,02,08,58,426.00
2022,08,02,08,59,430.10
2022,08,02,09,00,434.40
2022,08,02,09,01,438.50
2022,08,02,09,02,439.00
2022,08,02,09,03,440.80
2022,08,02,09,04,444.10
2022,08,02,09,05,446.00
2022,08,02,09,06,448.00
2022,08,02,09,07,453.10
2022,08,02,09,08,457.60
2022,08,02,09,09,462.50
2022,08,02,09,10,467.00
2022,08,02,09,11,468.60
2022,08,02,09,12,469.00
2022,08,02,09,13,472.60
2022,08,02,09,14,473.00
2022,08,02,09,15,473.00
2022,08,02,09,16,473.00
2022,08,02,09,17,474.90
2022,08,02,09,18,476.00
2022,08,02,09,19,476.60
2022,08,02,09,20,489.00
2022,08,02,09,21,489.00
2022,08,02,09,22,489.00
2022,08,02,09,23,492.40
2022,08,02,09,24,495.60
2022,08,02,09,25,497.00
2022,08,02,09,26,497.50
2022,08,02,09,27,499.70
2022,08,02,09,28,502.10
2022,08,02,09,29,503.00
2022,08,02,09,30,503.80
2022,08,02,09,31,504.40
2022,08,02,09,32,508.50
2022,08,02,09,33,510.80
2022,08,02,09,34,513.70
2022,08,02,09,35,516.40
2022,08,02,09,36,519.50
2022,08,02,09,37,520.40
2022,08,02,09,38,524.00
2022,08,02,09,39,524.00
2022,08,02,09,40,524.00
2022,08,02,09,41,530.30
2022,08,02,09,42,533.80
2022,08,02,09,43,536.00
2022,08,02,09,44,536.00
2022,08,02,09,45,539.20
2022,08,02,09,46,543.00
2022,08,02,09,47,545.80
2022,08,02,09,48,549.50
2022,08,02,09,49,552.00
2022,08,02,09,50,552.00
2022,08,02,09,51,554.20
2022,08,02,09,52,558.20
2022,08,02,09,53,560.60
2022,08,02,09,54,562.80
2022,08,02,09,55,564.00
2022,08,02,09,56,566.10
2022,08,02,09,57,570.50
2022,08,02,09,58,571.00
2022,08,02,09,59,574.00
2022,08,02,10,00,573.60
2022,08,02,10,01,577.20
2022,08,02,10,02,578.00
2022,08,02,10,03,580.00
2022,08,02,10,04,583.30
2022,08,02,10,05,584.00
2022,08,02,10,06,584.30
2022,08,02,10,07,587.40
2022,08,02,10,08,589.80
2022,08,02,10,09,591.50
2022,08,02,10,10,594.80
2022,08,02,10,11,594.30
2022,08,02,10,12,597.90
2022,08,02,10,13,599.00
2022,08,02,10,14,599.80
2022,08,02,10,15,603.20
2022,08,02,10,16,603.60
2022,08,02,10,17,604.70
2022,08,02,10,18,604.70
2022,08,02,10,19,604.30
2022,08,02,10,20,608.90
2022,08,02,10,21,604.80
2022,08,02,10,22,601.00
2022,08,02,10,23,607.30
2022,08,02,10,24,610.30
2022,08,02,10,25,602.20
2022,08,02,10,26,601.80
2022,08,02,10,27,598.00
2022,08,02,10,28,613.50
2022,08,02,10,29,615.30
2022,08,02,10,30,613.00
2022,08,02,10,31,614.20
2022,08,02,10,32,621.00
2022,08,02,10,33,626.00
2022,08,02,10,34,626.00
2022,08,02,10,35,632.50
2022,08,02,10,36,637.40
2022,08,02,10,37,643.60
2022,08,02,10,38,645.00
2022,08,02,10,39,645.00
2022,08,02,10,40,648.00
2022,08,02,10,41,649.90
2022,08,02,10,42,650.40
2022,08,02,10,43,653.40
2022,08,02,10,44,656.00
2022,08,02,10,45,656.70
2022,08,02,10,46,657.00
2022,08,02,10,47,658.90
2022,08,02,10,48,659.00
2022,08,02,10,49,660.40
2022,08,02,10,50,663.00
2022,08,02,10,51,666.40
2022,08,02,10,52,668.00
2022,08,02,10,53,670.80
2022,08,02,10,54,672.00
2022,08,02,10,55,675.00
2022,08,02,10,56,675.00
2022,08,02,10,57,677.70
2022,08,02,10,58,679.80
2022,08,02,10,59,680.40
2022,08,02,11,00,684.00
2022,08,02,11,01,684.00
2022,08,02,11,02,685.70
2022,08,02,11,03,687.00
2022,08,02,11,04,688.70
2022,08,02,11,05,691.30
2022,08,02,11,06,693.00
2022,08,02,11,07,693.00
2022,08,02,11,08,693.60
2022,08,02,11,09,694.00
2022,08,02,11,10,695.90
2022,08,02,11,11,698.30
2022,08,02,11,12,700.30
2022,08,02,11,13,701.00
2022,08,02,11,14,702.20
2022,08,02,11,15,703.00
2022,08,02,11,16,706.60
2022,08,02,11,17,707.60
2022,08,02,11,18,710.00
2022,08,02,11,19,710.00
2022,08,02,11,20,712.50
2022,08,02,11,21,714.00
2022,08,02,11,22,714.00
2022,08,02,11,23,715.10
2022,08,02,11,24,719.00
2022,08,02,11,25,719.00
2022,08,02,11,26,720.30
2022,08,02,11,27,723.40
2022,08,02,11,28,724.20
2022,08,02,11,29,726.40
2022,08,02,11,30,728.00
2022,08,02,11,31,728.00
2022,08,02,11,32,728.00
2022,08,02,11,33,730.40
2022,08,02,11,34,726.80
2022,08,02,11,35,712.50
2022,08,02,11,36,698.30
2022,08,02,11,37,702.80
2022,08,02,11,38,717.40
2022,08,02,11,39,726.70
2022,08,02,11,40,727.80
2022,08,02,11,41,727.20
2022,08,02,11,42,728.20
2022,08,02,11,43,726.20
2022,08,02,11,44,728.00
2022,08,02,11,45,732.20
2022,08,02,11,46,735.10
2022,08,02,11,47,747.00
2022,08,02,11,48,746.10
2022,08,02,11,49,745.00
2022,08,02,11,50,746.50
2022,08,02,11,51,750.20
2022,08,02,11,52,747.80
2022,08,02,11,53,751.00
2022,08,02,11,54,751.00
2022,08,02,11,55,751.00
2022,08,02,11,56,751.80
2022,08,02,11,57,752.00
2022,08,02,11,58,752.40
2022,08,02,11,59,754.60
2022,08,02,12,00,756.00
2022,08,02,12,01,756.00
2022,08,02,12,02,757.50
2022,08,02,12,03,758.90
2022,08,02,12,04,758.80
2022,08,02,12,05,759.10
2022,08,02,12,06,761.00
2022,08,02,12,07,761.00
2022,08,02,12,08,761.00
2022,08,02,12,09,761.20
2022,08,02,12,10,763.80
2022,08,02,12,11,765.60
2022,08,02,12,12,765.00
2022,08,02,12,13,767.00
2022,08,02,12,14,768.00
2022,08,02,12,15,768.00
2022,08,02,12,16,768.00
2022,08,02,12,17,768.80
2022,08,02,12,18,770.00
2022,08,02,12,19,770.00
2022,08,02,12,20,771.60
2022,08,02,12,21,772.70
2022,08,02,12,22,770.00
2022,08,02,12,23,765.60
2022,08,02,12,24,766.70
2022,08,02,12,25,773.00
2022,08,02,12,26,774.70
2022,08,02,12,27,773.30
2022,08,02,12,28,775.00
2022,08,02,12,29,775.00
2022,08,02,12,30,775.00
2022,08,02,12,31,776.50
2022,08,02,12,32,775.20
2022,08,02,12,33,775.60
2022,08,02,12,34,778.30
2022,08,02,12,35,777.90
2022,08,02,12,36,777.80
2022,08,02,12,37,777.00
2022,08,02,12,38,776.80
2022,08,02,12,39,773.80
2022,08,02,12,40,775.20
2022,08,02,12,41,772.50
2022,08,02,12,42,775.60
2022,08,02,12,43,775.40
2022,08,02,12,44,775.00
2022,08,02,12,45,775.80
2022,08,02,12,46,779.00
2022,08,02,12,47,779.00
2022,08,02,12,48,779.00
2022,08,02,12,49,779.00
2022,08,02,12,50,780.00
2022,08,02,12,51,780.00
2022,08,02,12,52,780.00
2022,08,02,12,53,781.00
2022,08,02,12,54,782.00
2022,08,02,12,55,782.00
2022,08,02,12,56,783.90
2022,08,02,12,57,784.00
2022,08,02,12,58,784.00
2022,08,02,12,59,784.00
2022,08,02,13,00,784.00
2022,08,02,13,01,784.00
2022,08,02,13,02,779.80
2022,08,02,13,03,779.30
2022,08,02,13,04,780.80
2022,08,02,13,05,780.80
2022,08,02,13,06,781.40
2022,08,02,13,07,783.60
2022,08,02,13,08,782.30
2022,08,02,13,09,784.00
2022,08,02,13,10,784.00
2022,08,02,13,11,784.00
2022,08,02,13,12,784.00
2022,08,02,13,13,783.80
2022,08,02,13,14,780.00
2022,08,02,13,15,780.00
2022,08,02,13,16,780.90
2022,08,02,13,17,780.80
2022,08,02,13,18,781.60
2022,08,02,13,19,783.80
2022,08,02,13,20,784.00
2022,08,02,13,21,784.00
2022,08,02,13,22,783.00
2022,08,02,13,23,782.00
2022,08,02,13,24,782.00
2022,08,02,13,25,780.10
2022,08,02,13,26,780.40
2022,08,02,13,27,781.30
2022,08,02,13,28,780.00
2022,08,02,13,29,781.30
2022,08,02,13,30,782.00
2022,08,02,13,31,780.10
2022,08,02,13,32,780.00
2022,08,02,13,33,779.60
2022,08,02,13,34,779.00
2022,08,02,13,35,779.70
2022,08,02,13,36,780.00
2022,08,02,13,37,780.00
2022,08,02,13,38,779.80
2022,08,02,13,39,779.00
2022,08,02,13,40,779.00
2022,08,02,13,41,776.20
2022,08,02,13,42,775.00
2022,08,02,13,43,775.00
2022,08,02,13,44,775.60
2022,08,02,13,45,776.20
2022,08,02,13,46,775.00
2022,08,02,13,47,775.00
2022,08,02,13,48,775.00
2022,08,02,13,49,775.00
2022,08,02,13,50,774.40
2022,08,02,13,51,773.90
2022,08,02,13,52,775.00
2022,08,02,13,53,775.00
2022,08,02,13,54,773.20
2022,08,02,13,55,773.00
2022,08,02,13,56,772.10
2022,08,02,13,57,770.00
2022,08,02,13,58,770.00
2022,08,02,13,59,768.50
2022,08,02,14,00,768.00
2022,08,02,14,01,766.00
2022,08,02,14,02,766.00
2022,08,02,14,03,766.00
2022,08,02,14,04,765.30
2022,08,02,14,05,765.80
2022,08,02,14,06,765.10
2022,08,02,14,07,765.00
2022,08,02,14,08,764.30
2022,08,02,14,09,762.00
2022,08,02,14,10,762.30
2022,08,02,14,11,763.00
2022,08,02,14,12,762.90
2022,08,02,14,13,760.50
2022,08,02,14,14,759.00
2022,08,02,14,15,757.40
2022,08,02,14,16,757.30
2022,08,02,14,17,758.00
2022,08,02,14,18,755.80
2022,08,02,14,19,754.00
2022,08,02,14,20,754.00
2022,08,02,14,21,752.80
2022,08,02,14,22,752.00
2022,08,02,14,23,752.00
2022,08,02,14,24,751.50
2022,08,02,14,25,749.60
2022,08,02,14,26,751.00
2022,08,02,14,27,749.80
2022,08,02,14,28,746.20
2022,08,02,14,29,745.00
2022,08,02,14,30,744.00
2022,08,02,14,31,744.00
2022,08,02,14,32,744.00
2022,08,02,14,33,742.80
2022,08,02,14,34,742.00
2022,08,02,14,35,740.20
2022,08,02,14,36,739.50
2022,08,02,14,37,736.30
2022,08,02,14,38,735.90
2022,08,02,14,39,735.80
2022,08,02,14,40,733.50
2022,08,02,14,41,731.20
2022,08,02,14,42,730.60
2022,08,02,14,43,729.00
2022,08,02,14,44,729.00
2022,08,02,14,45,728.30
2022,08,02,14,46,730.40
2022,08,02,14,47,726.50
2022,08,02,14,48,726.00
2022,08,02,14,49,724.60
2022,08,02,14,50,721.50
2022,08,02,14,51,721.00
2022,08,02,14,52,719.40
2022,08,02,14,53,719.00
2022,08,02,14,54,719.00
2022,08,02,14,55,719.00
2022,08,02,14,56,716.20
2022,08,02,14,57,712.60
2022,08,02,14,58,713.70
2022,08,02,14,59,712.10
2022,08,02,15,00,711.50
2022,08,02,15,01,709.20
2022,08,02,15,02,707.50
2022,08,02,15,03,707.00
2022,08,02,15,04,705.30
2022,08,02,15,05,705.20
2022,08,02,15,06,707.00
2022,08,02,15,07,707.00
2022,08,02,15,08,703.70
2022,08,02,15,09,701.00
2022,08,02,15,10,701.00
2022,08,02,15,11,697.70
2022,08,02,15,12,695.40
2022,08,02,15,13,692.70
2022,08,02,15,14,691.00
2022,08,02,15,15,691.00
2022,08,02,15,16,687.40
2022,08,02,15,17,687.00
2022,08,02,15,18,686.70
2022,08,02,15,19,686.00
2022,08,02,15,20,684.80
2022,08,02,15,21,682.50
2022,08,02,15,22,682.00
2022,08,02,15,23,682.00
2022,08,02,15,24,685.80
2022,08,02,15,25,693.00
2022,08,02,15,26,644.40
2022,08,02,15,27,612.00
2022,08,02,15,28,670.30
2022,08,02,15,29,672.60
2022,08,02,15,30,671.00
2022,08,02,15,31,669.50
2022,08,02,15,32,666.70
2022,08,02,15,33,664.40
2022,08,02,15,34,663.00
2022,08,02,15,35,662.00
2022,08,02,15,36,658.20
2022,08,02,15,37,657.00
2022,08,02,15,38,657.00
2022,08,02,15,39,652.80
2022,08,02,15,40,650.00
2022,08,02,15,41,648.50
2022,08,02,15,42,647.00
2022,08,02,15,43,645.90
2022,08,02,15,44,645.00
2022,08,02,15,45,642.60
2022,08,02,15,46,640.00
2022,08,02,15,47,639.50
2022,08,02,15,48,638.00
2022,08,02,15,49,638.00
2022,08,02,15,50,638.00
2022,08,02,15,51,638.00
2022,08,02,15,52,629.00
2022,08,02,15,53,629.00
2022,08,02,15,54,628.50
2022,08,02,15,55,619.00
2022,08,02,15,56,613.00
2022,08,02,15,57,612.20
2022,08,02,15,58,612.80
2022,08,02,15,59,612.30
2022,08,02,16,00,613.00
2022,08,02,16,01,613.00
2022,08,02,16,02,607.80
2022,08,02,16,03,606.00
2022,08,02,16,04,606.00
2022,08,02,16,05,605.70
2022,08,02,16,06,603.00
2022,08,02,16,07,601.00
2022,08,02,16,08,599.40
2022,08,02,16,09,599.00
2022,08,02,16,10,597.60
2022,08,02,16,11,592.00
2022,08,02,16,12,591.50
2022,08,02,16,13,589.70
2022,08,02,16,14,587.40
2022,08,02,16,15,585.10
2022,08,02,16,16,583.80
2022,08,02,16,17,579.30
2022,08,02,16,18,578.00
2022,08,02,16,19,575.90
2022,08,02,16,20,571.80
2022,08,02,16,21,571.00
2022,08,02,16,22,571.00
2022,08,02,16,23,568.40
2022,08,02,16,24,563.50
2022,08,02,16,25,563.00
2022,08,02,16,26,559.80
2022,08,02,16,27,558.50
2022,08,02,16,28,553.50
2022,08,02,16,29,551.20
2022,08,02,16,30,550.00
2022,08,02,16,31,547.90
2022,08,02,16,32,547.00
2022,08,02,16,33,545.00
2022,08,02,16,34,545.00
2022,08,02,16,35,542.90
2022,08,02,16,36,540.00
2022,08,02,16,37,540.00
2022,08,02,16,38,539.50
2022,08,02,16,39,531.00
2022,08,02,16,40,529.50
2022,08,02,16,41,526.00
2022,08,02,16,42,524.70
2022,08,02,16,43,521.10
2022,08,02,16,44,519.20
2022,08,02,16,45,518.60
2022,08,02,16,46,516.30
2022,08,02,16,47,514.10
2022,08,02,16,48,512.40
2022,08,02,16,49,512.00
2022,08,02,16,50,511.40
2022,08,02,16,51,505.60
2022,08,02,16,52,502.20
2022,08,02,16,53,499.00
2022,08,02,16,54,499.00
2022,08,02,16,55,496.60
2022,08,02,16,56,493.90
2022,08,02,16,57,491.50
2022,08,02,16,58,489.60
2022,08,02,16,59,488.00
2022,08,02,17,00,485.70
2022,08,02,17,01,483.30
2022,08,02,17,02,482.70
2022,08,02,17,03,479.50
2022,08,02,17,04,476.80
2022,08,02,17,05,475.00
2022,08,02,17,06,475.00
2022,08,02,17,07,470.20